STARLINK-35074 (65422 NORAD) Tracking and Keplerian Element Data

This shows tracking and keplerian element data for the satellite.

Feedback or suggestion? Click here.




ElementValue
Catalog65422
NameSTARLINK-35074
Epoch Orbit1710
Epoch Day353.89217445
Epoch Year2025
RAAN247.4896
Inclination53.1592
Eccentricity6.49E-05
Argument of Perigee118.5777
Mean Anonmoly241.5293
Mean Motion15.3963425
Decay Rate0.00023963
L11 65422U 25192U 25353.89217445 .00023963 00000+0 60688-3 0 9999
L22 65422 53.1592 247.4896 0000649 118.5777 241.5293 15.39634250 17104



Live tracking and technical data element details for STARLINK-35074 (NORAD 65422). STARLINK-35074 can be tracked NOW for your location showing map with azimuth and elevation plus other details from your city location.







IsCatalogInMostPopularTable: catalog: 65422, numindb: 8
Update: records affected: 1



GetName: 65422 STARLINK-35074

Hit Count: updated at: Mon, 20 Apr 2026 10:42:54 GMT